Regional Weather Roundup
Issued by NWS New Orleans/Baton Rouge, LA

Home | Current Version | Previous Version | Text Only | Print | Product List | Glossary On
Versions: 1 2 3 4 5 6 7 8 9 10 11 12 13 14 15 16 17 18 19 20 21 22 23 24 25 26 27 28 29 30 31 32 33 34 35 36 37 38 39 40 41 42 43 44 45 46 47 48 49 50
958
ASUS44 KLIX 170810
RWRLIX
NEW ORLEANS REGIONAL WEATHER ROUNDUP
NATIONAL WEATHER SERVICE NEW ORLEANS LA
300 AM CDT WED SEP 17 2014

NOTE: "FAIR" INDICATES FEW OR NO CLOUDS BELOW 12,000 FEET WITH NO
      SIGNIFICANT WEATHER AND/OR OBSTRUCTIONS TO VISIBILITY.
      SKY/WX - SKY CONDITION AND SIGNIFICANT WEATHER.
      TMP - AIR TEMPERATURE.     DP    - DEWPOINT TEMPERATURE.
      RH  - RELATIVE HUMIDITY.   PRES  - PRESSURE.
      HI  - HEAT INDEX.          WCI   - WIND CHILL INDEX.

*  THESE STATIONS ARE NOT NWS OR FAA STATIONS AND ARE NOT UNDER
   NWS QUALITY CONTROL.

LAZ038-040-048-061>063-065>067-069-170900-
SOUTHEAST LOUISIANA

CITY           SKY/WX    TMP DP  RH WIND       PRES   REMARKS
N.O. AUDUBON     N/A     76  75  98 MISG        N/A
N.O. INTL ARPT CLOUDY    76  71  85 NW5       29.96S
N.O. LAKEFRONT CLOUDY    79  71  76 N6        29.96F
N.O. DOWNTOWN*   N/A     79  70  73 CALM      29.96S
SLIDELL        CLOUDY    73  70  90 NE5       29.96S
BATON ROUGE    CLOUDY    73  71  93 CALM      29.97F
BOOTHVILLE     CLOUDY    77  75  93 W6        29.96F
BELLE CHASSE   CLOUDY    75  72  90 CALM      29.96S
BOGALUSA*        N/A     73  70  89 N3        29.98F FOG
GALLIANO*      NOT AVBL
NEW ROADS*       N/A     73  72  98 CALM      29.98S FOG
GONZALES*        N/A     71  71 100 CALM      29.97S
HAMMOND*       CLOUDY    73  70  88 CALM      29.98S
HOUMA*         CLOUDY    74  71  88 CALM      29.97S FOG
PORT FOURCHON* NOT AVBL

$$

MSZ070-080>082-170900-
SOUTHERN MISSISSIPPI

CITY           SKY/WX    TMP DP  RH WIND       PRES   REMARKS
MCCOMB         MOCLDY    72  71  97 CALM      29.98F FOG
GULFPORT       CLOUDY    73  71  93 CALM      29.95F
BILOXI         CLOUDY    74  71  89 VRB2      29.95F
PASCAGOULA     CLOUDY    72  71  97 CALM      29.95F

$$

COASTAL OBSERVATIONS
LAKE AND NEARSHORE STATIONS

STATION/POSITION TIME  TEMP    WIND        PRES    WAVE
                       AIR SEA DIR/SP/G            HT/PER
                 (UTC) (F)     (DEG/KT/KT) (MB)    (FT/S)
PASCAGOULA       0800   74     300/  3/  4 1013.6
WAVELAND YACHT   0800   74     310/  3/  5 1013.9
GRAND ISLE       0800   80 85  320/  4/  5 1015.1
SOUTHWEST PASS   0800   81 90  320/  7/  8 1014.5
NEW CANAL        0800   80 82  290/  2/  3 1014.8
SHELL BEACH      0800   79 80  350/  6/  8 1014.3

OFFSHORE STATIONS

STATION/POSITION TIME  TEMP    WIND        PRES    WAVE
                       AIR SEA DIR/SP/G            HT/PER
                 (UTC) (F)     (DEG/KT/KT) (MB)    (FT/S)
64 S DAUPHIN ISL 0750   81 85  320/ 10/ 12 1014.2    2/ 5

$$




USA.gov is the U.S. government's official web portal to all federal, state and local government web resources and services.